DELTA 1 DEB, 7940

Orbit data source: Space-Track

DELTA 1 DEB, 7940 is space debris in SSO originally from a launch on Sun, 23 Jul 1972 UTC launched from the Air Force Western Test Range (AFWTR). Debris objects in space refer to the collection of defunct objects orbiting the Earth. Examples of debris include non-operational satellites, rocket bodies, and fragments generated from explosions, collisions, or faulty payload assembly.

Loading next visibility...
Identifier
7940, 1972-058CF
Orbit
SSO
Country
Flag of USUS
Related business
Manufacturer
Unknown
Mission
Spacecraft
Bus & Motor
Unknown
Mass
Unknown
Launch date (UTC)
1972-07-23 (54 years ago)
Launch vehicle
Unknown
Launch site
Air Force Western Test Range (AFWTR)
Object type
Payload
Rocket body
Debris
Shape & HBR
Unknown shape, 0.2 m
Radar Cross Section
Small (<0.1 m²)

Expand to show TLE details & history
Last TLE update: 4 hours ago

TLE from 4 hours ago
0 DELTA 1 DEB
1  7940U 72058CF  26121.53281834  .00001217  00000-0  45543-3 0  9993
2  7940  97.9809 154.2386 0321143  32.7970 329.2695 14.08478055714432
Epoch: 2026-05-01T12:47Z
TLE epoch observation values (Epoch: 2026-05-01T12:47:15.504Z)
Latitude
-0°
Longitude
102.96029°
Altitude
669.567 km
Speed
7.624 km/s
True Right ascension
10h 16m 57s
True Declination
0° 00' 00"
Sunlit
Object was in daylight at epoch
Visualization orbit readout
Latitude
Unknown
Longitude
Unknown
Altitude
Unknown
Speed
Unknown
Apparent Right ascension
Unknown
Apparent Declination
Unknown
Sunlit
N/A
Visualization observer readout
Local Sidereal Time
00:11:58
Azimuth
Unknown
Elevation
Unknown
Doppler factor
Unknown
Orbital elements
Apogee altitude
1,094.224 km
Perigee altitude
629.218 km
Semi-major axis
7,239.858 km
Eccentricity
0.03211
Inclination
97.9809°
RAAN
154.2386°
Arg. of periapsis
32.797°
True anomaly
327.32227°
Mean anomaly
329.2695°
Eccentric anomaly
328.3027°
Mean motion
3.52329 °/min
Orbital period
102.18 mins
BSTAR
0.00045543
Loading maneuver chart data...
Computing Atmospheric mass density...
Loading historical data...
Loading historical data...
Loading historical data...
Loading historical data...
Loading historical data...
Loading historical data...
Loading historical data...

Documentation

Showing up to 5 results
|